Location: Newark
(33.6333°S, 78.8500°W)
Time: 18:18:04
(UTC+00:00)

Tiros 1 - Pass Details

Date: 18 October 2019
Orbit: 630 x 664 km, 48.4° (Epoch: 17 November)

Event Time Altitude Azimuth Distance (km) Brightness Sun altitude
Rises 00:15:52 0° 225° (SW) 2,941 11.8 -10.0°
Reaches altitude 10° 00:18:44 10° 208° (SSW) 2,030 10.4 -10.6°
Maximum altitude 00:22:12 20° 160° (SSE) 1,470 9.0 -11.2°
Drops below altitude 10° 00:25:41 10° 112° (ESE) 2,029 9.3 -11.9°
Enters shadow 00:25:50 - 110° (ESE) 2,072 9.3 -12.0°
Sets 00:28:33 0° 94° (E) 2,938 - -12.5°
